星链-34994(STARLINK-34994)

导读 | 豆包AI

STARLINK-34994是美国于2025年10月8日发射的星链卫星,星链是美国太空探索技术公司(SpaceX)打造的低轨卫星互联网星座项目,旨在为全球提供高速互联网接入服务,该卫星加入低轨星座网络后,进一步拓展了星链系统的全球覆盖范围与服务能力。

基本信息
目录编号:
65924
目录名称:
STARLINK-34994
国际标识:
2025-225Q
轨道中心:
EARTH
卫星名称:
星链-34994
卫星全名:
星链-34994(STARLINK-34994)
卫星状态:
在轨 (已飞行203 天)
发射日期:
2025-10-08 UTC
国别 :
美国 (US)
星等 :
--
轨道信息
数据来源 国际轨道数据 AOE轨道数据
星历时间 2026-04-29T03:14:19+0800
12小时前
查看轨道信息
2026-04-26T02:00:00+0800
3天前
查看轨道信息
半长轴 6853.33km 6853.423km
偏心率 0.0001071 0.0001527
轨道倾角 53.161° 53.161°
近地点辐角 138.537° 88.726°
升交点赤经 292.683° 306.864°
平近点角 221.571° 11.635°
近地点 474.459km 474.239km
远地点 475.927km 476.333km
周期 94.105分钟 94.107分钟
每日圈数 15.302075 15.301764
详细信息
固有亮度:
5
最大亮度:
2.5
卫星平台:
Starlink V1.0
覆盖范围:
全球
运营商:
太空探索技术公司
运营商所在国:
美国
制造商(研发单位):
太空探索技术公司
制造商所在国:
美国
使用方式:
暂无
卫星简介
Starlink 计划是 SpaceX 推出的全球卫星互联网项目,通过发射低轨道卫星,为全球尤其是偏远地区提供高速、低延迟的互联网服务。自 2019 年起,Starlink 已部署数千颗卫星,旨在缩小全球数字鸿沟,推动互联网普及。该项目还为军事、航空等行业提供通信支持,带来广泛经济效益。
2D轨道图
3D轨道图
轨道高度分析图
轨道倾角分析图
轨道综合分析图
查看轨道综合分析图